COSMOS 2251 DEB, 47059

Orbit data source: Space-Track

COSMOS 2251 DEB, 47059 is space debris in LEO originally from a launch on Wed, 16 Jun 1993 UTC launched from the Plesetsk Missile And Space Complex (PKMTR). The debris from Iridium 33, an American commercial communications satellite, has been tracked extensively since its accidental collision with the defunct Russian satellite Cosmos 2251 in 2009. This event, occurring at high speed in low Earth orbit (LEO), generated thousands of pieces of space debris, significantly increasing the risk of further collisions. The Iridium 33 debris cloud has impacted space traffic management and orbital debris mitigation strategies, making it a subject of ongoing study in space situational awareness.

Loading next visibility...
Identifier
47059, 1993-036BXP
Orbit
LEO
Country
Flag of CISCIS
Related business
Manufacturer
Unknown
Mission
Spacecraft
Bus & Motor
Unknown
Mass
Unknown
Launch date (UTC)
1993-06-16 (33 years ago)
Launch vehicle
Unknown
Launch site
Plesetsk Missile And Space Complex (PKMTR)
Object type
Payload
Rocket body
Debris
Shape & HBR
Unknown shape, 0.1 m
Radar Cross Section
Small (<0.1 m²)

Expand to show TLE details & history
Last TLE update: 16 hours ago

TLE from 16 hours ago
0 COSMOS 2251 DEB
1 47059U 93036BXP 26144.56503967  .00146537  00000-0  31860-2 0  9990
2 47059  73.9655 249.5579 0014483   2.6021 357.5261 15.43591256107899
Epoch: 2026-05-24T13:33Z
TLE epoch observation values (Epoch: 2026-05-24T13:33:39.427Z)
Latitude
-0°
Longitude
163.97826°
Altitude
428.395 km
Speed
7.66 km/s
True Right ascension
16h 38m 13s
True Declination
0° 00' 00"
Sunlit
Object was in full shadow at epoch
Visualization orbit readout
Latitude
Unknown
Longitude
Unknown
Altitude
Unknown
Speed
Unknown
Apparent Right ascension
Unknown
Apparent Declination
Unknown
Sunlit
N/A
Visualization observer readout
Local Sidereal Time
14:28:53
Azimuth
Unknown
Elevation
Unknown
Doppler factor
Unknown
Orbital elements
Apogee altitude
442.898 km
Perigee altitude
423.169 km
Semi-major axis
6,811.17 km
Eccentricity
0.00145
Inclination
73.9655°
RAAN
249.5579°
Arg. of periapsis
2.6021°
True anomaly
357.51892°
Mean anomaly
357.5261°
Eccentric anomaly
357.52251°
Mean motion
3.8611 °/min
Orbital period
93.24 mins
BSTAR
0.003186
Loading maneuver chart data...
Computing Atmospheric mass density...

Documentation

Showing up to 5 results
|